Location: Sobotiste
(48.7170°N, 17.4000°E)
Time: 00:33:32
(UTC+01:00)

AO-73 - Visible Passes

Search period start: 15 March 2026 00:00
Search period end: 25 March 2026 00:00
Orbit: 516 x 568 km, 97.8° (Epoch: 13 March)

Date Brightness Start Highest point End Pass type
(mag) Time Alt. Az. Time Alt. Az. Time Alt. Az.
15 Mar ? 03:29:33 10° NNE 03:33:06 56° E 03:33:06 56° E visible
15 Mar ? 05:05:18 10° NNW 05:07:27 15° WNW 05:08:40 13° W visible
16 Mar ? 03:22:55 10° NNE 03:26:30 47° E 03:26:30 47° E visible
16 Mar ? 04:58:21 10° NNW 05:00:50 17° WNW 05:02:04 15° W visible
17 Mar ? 03:16:17 10° NNE 03:19:53 40° E 03:19:53 40° E visible
17 Mar ? 04:51:26 10° NNW 04:54:12 19° WNW 04:55:26 17° W visible
18 Mar ? 03:09:39 10° NNE 03:13:08 33° E 03:13:15 33° ESE visible
18 Mar ? 04:44:32 10° NNW 04:47:32 22° WNW 04:48:49 19° W visible
19 Mar ? 03:03:02 10° NE 03:06:21 28° E 03:06:36 28° ESE visible
19 Mar ? 04:37:40 10° N 04:40:51 26° WNW 04:42:09 21° W visible
20 Mar ? 02:56:26 10° NE 02:59:33 24° E 02:59:57 24° ESE visible
20 Mar ? 04:30:48 10° N 04:34:08 30° WNW 04:35:29 23° WSW visible
21 Mar ? 02:49:51 10° NE 02:52:44 20° E 02:53:16 20° ESE visible
21 Mar ? 04:23:56 10° N 04:27:25 35° WNW 04:28:49 26° WSW visible
22 Mar ? 02:43:18 10° NE 02:45:54 17° E 02:46:34 17° ESE visible
22 Mar ? 04:17:05 10° N 04:20:40 41° WNW 04:22:08 28° WSW visible
23 Mar ? 02:36:49 10° NE 02:39:02 15° E 02:39:52 14° ESE visible
23 Mar ? 04:10:13 10° N 04:13:53 49° WNW 04:15:26 30° SW visible
24 Mar ? 02:30:28 10° ENE 02:32:08 13° E 02:33:09 12° ESE visible
24 Mar ? 04:03:22 10° N 04:07:06 60° WNW 04:08:42 31° SW visible
